星链-32480 (STARLINK-32480)

导读

STARLINK-32480是美国SpaceX公司星链星座的第二代卫星,于2024年11月21日发射入轨。它属于星链Gen2星座部署批次,标配激光星间链路,配备增强型相控阵天线,单星容量超100 Gbps,可提供百兆到千兆级用户终端速度,延迟低于20毫秒。该卫星具备完全自主避碰能力,退役后会在大气层完全烧毁,旨在补充全球卫星互联网覆盖,支持住宅、移动、海事等多场景高速互联服务,是星链扩张全球通信网络的重要组成单元。

基本信息
目录编号:
62039
目录名称:
STARLINK-32480
国际标识:
2024-216H
轨道中心:
EARTH
卫星名称:
星链-32480
卫星全名:
星链-32480 (STARLINK-32480)
卫星状态:
在轨 (已飞行653 天)
发射日期:
2024-11-21 UTC
国别 :
美国 (US)
星等 :
--
轨道信息
数据来源 国际轨道数据 AOE轨道数据
星历时间 2026-09-05T13:49:54+0800
12小时前
查看轨道信息
2026-09-02T09:00:00+0800
3天前
查看轨道信息
半长轴 6861.166km 6861.074km
偏心率 0.0002852 0.0002295
轨道倾角 43.002° 43.005°
近地点辐角 285.356° 246.741°
升交点赤经 322.503° 340.587°
平近点角 74.697° 127.677°
近地点 481.072km 481.362km
远地点 484.986km 484.512km
周期 94.266分钟 94.264分钟
每日圈数 15.275868 15.276175
详细信息
固有亮度:
5
最大亮度:
2.5
卫星平台:
Starlink V1.0
覆盖范围:
全球
运营商:
太空探索技术公司
运营商所在国:
美国
制造商(研发单位):
太空探索技术公司
制造商所在国:
美国
使用方式:
暂无
卫星简介
Starlink 计划是 SpaceX 推出的全球卫星互联网项目,通过发射低轨道卫星,为全球尤其是偏远地区提供高速、低延迟的互联网服务。自 2019 年起,Starlink 已部署数千颗卫星,旨在缩小全球数字鸿沟,推动互联网普及。该项目还为军事、航空等行业提供通信支持,带来广泛经济效益。
2D轨道图
3D轨道图
轨道高度分析图
轨道倾角分析图
轨道综合分析图
查看轨道综合分析图
交会数据列表
事件ID 空间交会对象 最接近时刻(TCA) 交会距离 交会风险概率(CRP) 交会风险指数(CRI) 操作
CDM_260908-001705-798506-203921
2026-09-08T
00:17:54+0000
1.362 km
极远距离
5.878131E-6 低风险 0.5
CDM_260907-091406-203906-221021
2026-09-07T
09:14:48+0000
1.458 km
极远距离
1.620978E-6 低风险 0.39
CDM_260908-015205-798506-203921
2026-09-08T
01:52:03+0000
2.629 km
极远距离
1.097127E-6 低风险 0.36
CDM_260907-104806-203906-221021
2026-09-07T
10:48:57+0000
2.099 km
极远距离
6.516696E-7 极低风险 0.31
CDM_260907-144406-203906-221021
2026-09-07T
14:44:20+0000
2.119 km
极远距离
6.395351E-7 极低风险 0.31
CDM_260907-131006-203906-221021
2026-09-07T
13:10:11+0000
2.252 km
极远距离
5.711888E-7 极低风险 0.3